Perry, IA

4:36 AM CST on February 23, 2017 (GMT -0600)
Perry Municipal

Weather History for KPRO - January, 2014

Change the Weather History Date:

Tuesday, January 7, 2014

  Actual Average Record
Temperature  
Mean Temperature 4 °F -  
Max Temperature 16 °F 25 °F 48 °F (1949)
Min Temperature -9 °F 4 °F -24 °F (1971)
Degree Days  
Heating Degree Days 62    
Moisture  
Dew Point -3 °F    
Average Humidity 69    
Maximum Humidity 77    
Minimum Humidity 58    
Precipitation  
Precipitation 0.00 in - - ()
Sea Level Pressure  
Sea Level Pressure 30.17 in    
Wind  
Wind Speed 5 mph (ESE)    
Max Wind Speed 10 mph    
Max Gust Speed -    
Visibility 10 miles    
Events      
Averages and records for this station are not official NWS values.
T = Trace of Precipitation, MM = Missing Value Source: NWS Daily Summary

Daily Weather History Graph

Daily Weather History Graph

Search for Another Location

Airport or City:

Trip Planner

Search our weather history database for the weather conditions in past years. The results will help you decide how hot, cold, wet, or windy it might be!

Date:

Astronomy

Jan. 07, 2014 Rise Set
Actual Time 7:44 AM CST 5:02 PM CST
Civil Twilight 7:12 AM CST 5:33 PM CST
Nautical Twilight 6:38 AM CST 6:08 PM CST
Astronomical Twilight 6:04 AM CST 6:41 PM CST
Moon 11:26 AM CST (1/7) No Moon Set
Length of Visible Light 10h 20m
Length of Day
9h 18m
Waxing Crescent, 46% of the Moon is Illuminated
Jan 7
Waxing Crescent
Jan 7
First Quarter
Jan 15
Full
Jan 23
Last Quarter
Jan 30
New

Hourly Weather History & Observations

Time (CST) Temp. Windchill Dew Point Humidity Pressure Visibility Wind Dir Wind Speed Gust Speed Precip Events Conditions
12:15 AM -9.6 °F -24.5 °F -16.2 °F 73% 30.27 in 10.0 mi WSW 6.9 mph - N/A   Clear
12:35 AM -8.0 °F -22.5 °F -14.8 °F 72% 30.28 in 10.0 mi West 6.9 mph - N/A   Clear
12:55 AM -6.5 °F -19.3 °F -13.9 °F 70% 30.27 in 10.0 mi West 5.8 mph - N/A   Clear
1:15 AM -7.1 °F -23.9 °F -14.1 °F 72% 30.28 in 10.0 mi West 9.2 mph - N/A   Clear
1:35 AM -7.2 °F -23.0 °F -14.6 °F 70% 30.26 in 10.0 mi WSW 8.1 mph - N/A   Clear
1:55 AM -8.3 °F -25.5 °F -15.2 °F 72% 30.25 in 10.0 mi WSW 9.2 mph - N/A   Clear
2:15 AM -7.6 °F -16.5 °F -14.8 °F 71% 30.26 in 10.0 mi SW 3.5 mph - N/A   Clear
2:35 AM -6.3 °F -15.1 °F -13.0 °F 73% 30.25 in 10.0 mi SSW 3.5 mph - N/A   Clear
2:55 AM -7.1 °F -18.1 °F -13.4 °F 74% 30.24 in 10.0 mi SSW 4.6 mph - N/A   Clear
3:15 AM -4.9 °F -15.6 °F -11.4 °F 74% 30.22 in 10.0 mi South 4.6 mph - N/A   Clear
3:55 AM -6.0 °F - -12.5 °F 74% 30.21 in 10.0 mi Calm Calm - N/A   Scattered Clouds
4:15 AM -5.8 °F - -11.9 °F 75% 30.20 in 10.0 mi Calm Calm - N/A   Scattered Clouds
4:35 AM -4.9 °F -13.4 °F -10.8 °F 76% 30.18 in 10.0 mi ESE 3.5 mph - N/A   Scattered Clouds
4:55 AM -3.8 °F -14.4 °F -10.7 °F 72% 30.19 in 10.0 mi SE 4.6 mph - N/A   Scattered Clouds
5:15 AM -3.1 °F - -10.3 °F 71% 30.20 in 10.0 mi Calm Calm - N/A   Scattered Clouds
5:35 AM -2.7 °F -13.1 °F -9.8 °F 72% 30.19 in 10.0 mi SSE 4.6 mph - N/A   Mostly Cloudy
5:55 AM -2.6 °F -16.0 °F -9.6 °F 72% 30.19 in 10.0 mi SSE 6.9 mph - N/A   Mostly Cloudy
6:15 AM -3.1 °F -13.5 °F -9.4 °F 74% 30.19 in 10.0 mi SE 4.6 mph - N/A   Scattered Clouds
6:35 AM -3.1 °F -13.5 °F -9.6 °F 74% 30.18 in 10.0 mi East 4.6 mph - N/A   Clear
6:55 AM -2.2 °F -14.2 °F -9.2 °F 72% 30.17 in 10.0 mi ESE 5.8 mph - N/A   Clear
7:15 AM -1.8 °F -13.7 °F -9.2 °F 71% 30.16 in 10.0 mi SE 5.8 mph - N/A   Scattered Clouds
7:55 AM -0.8 °F -13.9 °F -8.0 °F 72% 30.14 in 10.0 mi SSE 6.9 mph - N/A   Overcast
8:15 AM -0.2 °F -11.8 °F -7.2 °F 72% 30.13 in 10.0 mi ESE 5.8 mph - N/A   Scattered Clouds
8:35 AM 0.9 °F -10.5 °F -6.5 °F 71% 30.13 in 10.0 mi ESE 5.8 mph - N/A   Clear
8:55 AM 2.8 °F -9.5 °F -4.7 °F 71% 30.13 in 10.0 mi ESE 6.9 mph - N/A   Clear
9:15 AM 4.1 °F -10.2 °F -4.2 °F 69% 30.13 in 10.0 mi ESE 9.2 mph - N/A   Scattered Clouds
9:35 AM 4.8 °F -10.2 °F -3.6 °F 68% 30.12 in 10.0 mi ESE 10.4 mph - N/A   Overcast
9:55 AM 5.9 °F -8.9 °F -2.4 °F 69% 30.12 in 10.0 mi East 10.4 mph - N/A   Overcast
10:15 AM 6.3 °F -8.4 °F -1.7 °F 70% 30.11 in 10.0 mi East 10.4 mph - N/A   Overcast
10:35 AM 7.2 °F -5.4 °F -1.1 °F 69% 30.13 in 10.0 mi ESE 8.1 mph - N/A   Overcast
10:55 AM 8.6 °F -1.3 °F -0.8 °F 66% 30.12 in 10.0 mi ESE 5.8 mph - N/A   Overcast
11:01 AM 8.6 °F -1.3 °F -0.4 °F 67% 30.12 in 10.0 mi East 5.8 mph - N/A   Overcast
11:15 AM 9.3 °F 1.0 °F -0.4 °F 65% 30.13 in 10.0 mi ESE 4.6 mph - N/A   Overcast
11:35 AM 9.5 °F 3.0 °F 0.5 °F 67% 30.12 in 10.0 mi East 3.5 mph - N/A   Overcast
11:55 AM 10.8 °F 4.5 °F 1.2 °F 65% 30.11 in 10.0 mi South 3.5 mph - N/A   Overcast
12:15 PM 11.8 °F 3.9 °F 1.0 °F 62% 30.10 in 10.0 mi South 4.6 mph - N/A   Overcast
12:35 PM 12.6 °F 4.8 °F 1.9 °F 63% 30.07 in 10.0 mi SE 4.6 mph - N/A   Overcast
12:55 PM 14.0 °F 6.5 °F 2.7 °F 61% 30.07 in 10.0 mi East 4.6 mph - N/A   Overcast
1:15 PM 14.7 °F 9.0 °F 3.0 °F 60% 30.06 in 10.0 mi SSW 3.5 mph - N/A   Overcast
1:35 PM 15.6 °F - 3.7 °F 59% 30.06 in 10.0 mi Calm Calm - N/A   Scattered Clouds
1:55 PM 15.6 °F - 3.7 °F 59% 30.06 in 10.0 mi Calm Calm - N/A   Clear
2:35 PM 16.7 °F - 4.1 °F 58% 30.08 in 10.0 mi Calm Calm - N/A   Clear
2:55 PM 16.0 °F - 4.1 °F 60% 30.09 in 10.0 mi Calm Calm - N/A   Clear
3:15 PM 16.5 °F 11.0 °F 5.0 °F 61% 30.09 in 10.0 mi NE 3.5 mph - N/A   Clear
3:35 PM 16.3 °F - 4.3 °F 59% 30.11 in 10.0 mi Calm Calm - N/A   Clear
3:55 PM 16.3 °F - 4.6 °F 60% 30.12 in 10.0 mi Calm Calm - N/A   Clear
4:15 PM 16.0 °F - 4.6 °F 61% 30.12 in 10.0 mi Calm Calm - N/A   Clear
4:35 PM 15.6 °F 8.3 °F 4.8 °F 62% 30.13 in 10.0 mi North 4.6 mph - N/A   Clear
4:55 PM 14.4 °F 8.6 °F 4.6 °F 65% 30.14 in 10.0 mi NNE 3.5 mph - N/A   Clear
5:15 PM 13.3 °F 5.6 °F 4.1 °F 67% 30.15 in 10.0 mi NNE 4.6 mph - N/A   Scattered Clouds
5:35 PM 14.0 °F 5.1 °F 4.5 °F 66% 30.16 in 10.0 mi NNE 5.8 mph - N/A   Overcast
5:55 PM 14.0 °F 5.1 °F 4.5 °F 66% 30.16 in 10.0 mi NE 5.8 mph - N/A   Overcast
6:15 PM 13.8 °F 6.2 °F 4.8 °F 67% 30.17 in 10.0 mi NE 4.6 mph - N/A   Overcast
6:35 PM 14.0 °F 8.2 °F 4.5 °F 66% 30.17 in 10.0 mi ENE 3.5 mph - N/A   Overcast
6:55 PM 14.0 °F 8.2 °F 4.6 °F 66% 30.18 in 10.0 mi NNE 3.5 mph - N/A   Overcast
7:15 PM 12.7 °F 2.4 °F 3.6 °F 67% 30.18 in 10.0 mi NE 6.9 mph - N/A   Mostly Cloudy
7:35 PM 11.3 °F 5.1 °F 3.2 °F 70% 30.20 in 10.0 mi ENE 3.5 mph - N/A   Clear
7:55 PM 10.0 °F 1.8 °F 3.2 °F 74% 30.20 in 10.0 mi NE 4.6 mph - N/A   Clear
8:15 PM 9.5 °F 1.2 °F 2.3 °F 73% 30.20 in 10.0 mi NE 4.6 mph - N/A   Clear
8:35 PM 9.9 °F 3.4 °F 1.9 °F 70% 30.21 in 10.0 mi ENE 3.5 mph - N/A   Mostly Cloudy
8:55 PM 9.3 °F 1.0 °F 2.1 °F 73% 30.21 in 10.0 mi East 4.6 mph - N/A   Overcast
9:15 PM 9.0 °F - 2.5 °F 75% 30.21 in 10.0 mi Calm Calm - N/A   Overcast
9:35 PM 9.5 °F - 2.3 °F 73% 30.22 in 10.0 mi Calm Calm - N/A   Overcast
9:55 PM 9.1 °F - 2.1 °F 73% 30.23 in 10.0 mi Calm Calm - N/A   Mostly Cloudy
10:15 PM 8.2 °F -0.3 °F 2.3 °F 77% 30.23 in 10.0 mi ESE 4.6 mph - N/A   Scattered Clouds
10:35 PM 9.0 °F 0.6 °F 2.5 °F 75% 30.23 in 10.0 mi ESE 4.6 mph - N/A   Scattered Clouds
10:55 PM 8.4 °F -0.1 °F 1.9 °F 75% 30.23 in 10.0 mi ENE 4.6 mph - N/A   Clear
11:15 PM 8.1 °F - 1.4 °F 74% 30.23 in 10.0 mi Calm Calm - N/A   Clear
11:35 PM 7.2 °F - 1.0 °F 76% 30.24 in 10.0 mi Calm Calm - N/A   Clear
11:55 PM 7.3 °F - 1.0 °F 75% 30.24 in 10.0 mi Calm Calm - N/A   Clear